Location: Buckeye Ditch
(40.9104°N, 122.9517°W)
Time: 23:01:29
(UTC+00:00)

Transit 2A - Pass Details

Date: 23 May 2025
Orbit: 599 x 947 km, 66.7° (Epoch: 20 June)

Event Time Altitude Azimuth Distance (km) Brightness Sun altitude
Rises 22:10:05 0° 340° (NNW) 2,883 8.9 57.3°
Reaches altitude 10° 22:12:34 10° 352° (N) 2,003 8.2 56.9°
Maximum altitude 22:16:26 28° 52° (NE) 1,236 7.1 56.3°
Drops below altitude 10° 22:20:32 10° 111° (ESE) 2,130 8.2 55.6°
Sets 22:23:15 0° 123° (ESE) 3,104 9.0 55.1°
